Regional Weather Roundup
Issued by NWS

Home | Current Version | Previous Version | Text Only | Print | Product List | Glossary On
Versions: 1 2 3 4 5 6 7 8 9 10 11 12 13 14 15 16 17 18 19 20 21 22 23 24 25 26 27 28 29 30 31 32 33 34 35 36 37 38 39 40 41 42 43 44 45 46 47 48 49 50
000
ASCA42 TJSJ 311311
RWRPR
PUERTO RICO/U.S. VIRGIN ISLANDS HOURLY WEATHER ROUNDUP
NATIONAL WEATHER SERVICE SAN JUAN PR
900 AM AST THU JUL 31 2014

PRZ001-004-311400-
PUERTO RICO

CITY           SKY/WX    TMP DP  RH WIND       PRES   REMARKS
SAN JUAN LMM   MOSUNNY   82  73  74 E7        30.01S
MAYAGUEZ       MOSUNNY   82  68  61 E5        30.01R
AGUADILLA      MOSUNNY   82  73  74 E5        30.03R
CEIBA          PTSUNNY   82  75  78 S3        30.04S
$$

PRZ006-007-311400-
U.S. VIRGIN ISLANDS

CITY           SKY/WX    TMP DP  RH WIND       PRES   REMARKS
CHARLOTTE AMA  MOSUNNY   84  75  74 SE14      30.01S HX  92
CHRISTIANSTED  SUNNY     86  73  66 E14       30.02S HX  93
$$

HOURLY WEATHER ROUNDUP FOR THE NEWS MEDIA

CITY           SKY/WX    TMP DP  RH WIND       PRES   REMARKS
MIAMI          PTSUNNY   84  76  76 VRB6      30.00R HX  93
ORLANDO        CLOUDY    81  78  91 CALM      29.99R
NEW YORK       PTSUNNY   73  59  61 S8        30.12S
NEWARK         LGT RAIN  70  58  65 W5G17     30.11R
CHICAGO        MOSUNNY   67  53  61 W7        30.03R
HARTFORD       SUNNY     72  64  76 S6        30.10F
BOSTON         MOSUNNY   70  62  76 SE7       30.10S
DALLAS         CLOUDY    76  71  85 S7        29.95R
PHILADELPHIA   MOSUNNY   72  60  66 S9        30.11S



USA.gov is the U.S. government's official web portal to all federal, state and local government web resources and services.